History for DABB

Annaba, DZ

Daily Weekly Monthly
Daily Summary for Saturday, March 23, 2019
  Actual: Average: Record:
Temperature
Mean Temperature: 54 °F / 12 °C - :  
Max Temperature: 63 °F / 17 °C 67 °F / 20 °C - (-1)
Min Temperature: 46 °F / 8 °C 48 °F / 10 °C - (-1)
Degree Days
Heating Degree Days: 10    
Growing Degree Days 4 (Base 50)    
Moisture
Dew Point 54 °F / 12 °C    
Average Humidity 89    
Maximum Humidity 100    
Minimum Humidity 73    
Precipitation
Precipitation 0.00 in / 0.0 cm 0.07 in / 1.8 cm - ()
Sea Level Pressure
Sea Level Pressure 30.15 in / 1020.84 hPa   
Wind
Wind Speed 3 mph / 6 km/h ()  
Max Wind Speed 12 mph / 18 km/h   
Max Gust Speed -   
Visibility 4.9 miles / 7.9 kilometers   
Events Rain   
Averages and records for this station are not official NWS values.
Key: T is trace of precipitation, MM is missing value
Source: Averaged Metar Reports

Graphs

Observations

History Graphs Observations

Obs Go Here...

Features

Weather Apps

WunderRadio

Weather Underground Apps
Check out our wide variety of mobile and setup applications.

Weather Underground Applications

Top of Page

© Copyright 2019
The Weather Company, LLC
Time(CET)TemperatureDew PointHumidity Sea Level Pressure Visibility Wind DirectionWind SpeedGust SpeedPrecipitationEvents Conditions
12:00 AM 53.6 °F / 12.0 °C 51.8 °F / 11.0 °C 94% 30.12 in / 1020 hPa 3.1 miles / 5.0 kilometers ENE 4.6 mph / 7.4 km/h - N/A Rain Light Rain
12:30 AM 53.6 °F / 12.0 °C 51.8 °F / 11.0 °C 94% 30.09 in / 1019 hPa 3.1 miles / 5.0 kilometers Calm Calm - N/A Rain Light Rain
1:00 AM 53 °F / 12 °C 53 °F / 11 °C 98% 30.12 in / 1020 hPa 3 miles / 5 kilometers Calm Calm - - Rain Light Rain
1:00 AM 53.6 °F / 12.0 °C 51.8 °F / 11.0 °C 94% 30.09 in / 1019 hPa 3.1 miles / 5.0 kilometers Calm Calm - N/A   Mostly Cloudy
2:00 AM 53.6 °F / 12.0 °C 53.6 °F / 12.0 °C 100% 30.09 in / 1019 hPa 1.9 miles / 3.0 kilometers SW 4.6 mph / 7.4 km/h - N/A Rain Light Rain
2:30 AM 51.8 °F / 11.0 °C 51.8 °F / 11.0 °C 100% 30.06 in / 1018 hPa 1.9 miles / 3.0 kilometers SSW 4.6 mph / 7.4 km/h - N/A Rain Light Rain
3:00 AM 51.8 °F / 11.0 °C 51.8 °F / 11.0 °C 100% 30.06 in / 1018 hPa 3.7 miles / 6.0 kilometers SSW 4.6 mph / 7.4 km/h - N/A Rain Light Rain
3:30 AM 53.6 °F / 12.0 °C 51.8 °F / 11.0 °C 94% 30.09 in / 1019 hPa 3.7 miles / 6.0 kilometers West 2.3 mph / 3.7 km/h - N/A   Mostly Cloudy
4:00 AM 53 °F / 12 °C 52 °F / 11 °C 96% 30.09 in / 1019 hPa 4 miles / 6 kilometers Calm Calm - - Rain Light Rain
4:00 AM 53.6 °F / 12.0 °C 51.8 °F / 11.0 °C 94% 30.09 in / 1019 hPa 3.7 miles / 6.0 kilometers Calm Calm - N/A   Mostly Cloudy
5:00 AM 53.6 °F / 12.0 °C 51.8 °F / 11.0 °C 94% 30.09 in / 1019 hPa 3.1 miles / 5.0 kilometers Calm Calm - N/A Rain Light Rain
5:30 AM 53.6 °F / 12.0 °C 53.6 °F / 12.0 °C 100% 30.09 in / 1019 hPa 3.1 miles / 5.0 kilometers Calm Calm - N/A Rain Light Rain
6:00 AM 53.6 °F / 12.0 °C 51.8 °F / 11.0 °C 94% 30.09 in / 1019 hPa 3.7 miles / 6.0 kilometers Calm Calm - N/A   Mostly Cloudy
6:30 AM 51.8 °F / 11.0 °C 51.8 °F / 11.0 °C 100% 30.09 in / 1019 hPa 3.1 miles / 5.0 kilometers Calm Calm - N/A   Mostly Cloudy
7:00 AM 52 °F / 11 °C 51 °F / 11 °C 96% 30.13 in / 1020 hPa 1 miles / 1.0 kilometers Calm Calm - -   Mist
7:00 AM 51.8 °F / 11.0 °C 51.8 °F / 11.0 °C 100% 30.12 in / 1020 hPa 0.6 miles / 1.0 kilometers Calm Calm - N/A   Mostly Cloudy
8:00 AM 53.6 °F / 12.0 °C 53.6 °F / 12.0 °C 100% 30.12 in / 1020 hPa 1.9 miles / 3.0 kilometers Calm Calm - N/A   Scattered Clouds
8:30 AM 55.4 °F / 13.0 °C 55.4 °F / 13.0 °C 100% 30.15 in / 1021 hPa 3.1 miles / 5.0 kilometers Calm Calm - N/A   Scattered Clouds
10:00 AM 58 °F / 14 °C 55 °F / 13 °C 87% 30.18 in / 1022 hPa 6 miles / 10 kilometers Calm Calm - -   Partly Cloudy
10:00 AM 59.0 °F / 15.0 °C 55.4 °F / 13.0 °C 88% 30.15 in / 1021 hPa 6.2 miles / 10.0 kilometers Calm Calm - N/A   Scattered Clouds
10:30 AM 59.0 °F / 15.0 °C 57.2 °F / 14.0 °C 94% 30.18 in / 1022 hPa 6.2 miles / 10.0 kilometers NNE 2.3 mph / 3.7 km/h - N/A   Scattered Clouds
11:00 AM 60.8 °F / 16.0 °C 55.4 °F / 13.0 °C 82% 30.18 in / 1022 hPa 6.2 miles / 10.0 kilometers NNE 3.5 mph / 5.6 km/h - N/A   Scattered Clouds
11:30 AM 60.8 °F / 16.0 °C 55.4 °F / 13.0 °C 82% 30.18 in / 1022 hPa 6.2 miles / 10.0 kilometers NE 2.3 mph / 3.7 km/h - N/A   Scattered Clouds
12:00 PM 60.8 °F / 16.0 °C 55.4 °F / 13.0 °C 82% 30.18 in / 1022 hPa 6.2 miles / 10.0 kilometers NE 3.5 mph / 5.6 km/h - N/A   Scattered Clouds
12:30 PM 62.6 °F / 17.0 °C 55.4 °F / 13.0 °C 77% 30.18 in / 1022 hPa 6.2 miles / 10.0 kilometers NE 8.1 mph / 13.0 km/h - N/A   Scattered Clouds
1:00 PM 62 °F / 17 °C 55 °F / 13 °C 73% 30.18 in / 1022 hPa 6 miles / 10 kilometers NE 10.4 mph / 16.7 km/h - -   Partly Cloudy
1:00 PM 62.6 °F / 17.0 °C 55.4 °F / 13.0 °C 77% 30.15 in / 1021 hPa 6.2 miles / 10.0 kilometers NE 10.4 mph / 16.7 km/h - N/A   Scattered Clouds
1:30 PM 62.6 °F / 17.0 °C 57.2 °F / 14.0 °C 82% 30.15 in / 1021 hPa 6.2 miles / 10.0 kilometers NE 11.5 mph / 18.5 km/h - N/A   Scattered Clouds
2:00 PM 62.6 °F / 17.0 °C 55.4 °F / 13.0 °C 77% 30.15 in / 1021 hPa 6.2 miles / 10.0 kilometers NNE 10.4 mph / 16.7 km/h - N/A   Scattered Clouds
2:30 PM 62.6 °F / 17.0 °C 57.2 °F / 14.0 °C 82% 30.15 in / 1021 hPa 6.2 miles / 10.0 kilometers NNE 9.2 mph / 14.8 km/h - N/A   Scattered Clouds
3:00 PM 62.6 °F / 17.0 °C 57.2 °F / 14.0 °C 82% 30.15 in / 1021 hPa 6.2 miles / 10.0 kilometers NNE 9.2 mph / 14.8 km/h - N/A   Partly Cloudy
3:30 PM 62.6 °F / 17.0 °C 55.4 °F / 13.0 °C 77% 30.15 in / 1021 hPa 6.2 miles / 10.0 kilometers NNE 10.4 mph / 16.7 km/h - N/A   Partly Cloudy
4:00 PM 62 °F / 17 °C 55 °F / 13 °C 73% 30.16 in / 1021 hPa 6 miles / 10 kilometers NNE 11.5 mph / 18.5 km/h - -   Scattered Clouds
4:00 PM 62.6 °F / 17.0 °C 55.4 °F / 13.0 °C 77% 30.15 in / 1021 hPa 6.2 miles / 10.0 kilometers NNE 11.5 mph / 18.5 km/h - N/A   Partly Cloudy
4:30 PM 60.8 °F / 16.0 °C 55.4 °F / 13.0 °C 82% 30.15 in / 1021 hPa 6.2 miles / 10.0 kilometers NE 9.2 mph / 14.8 km/h - N/A   Partly Cloudy
5:00 PM 60.8 °F / 16.0 °C 55.4 °F / 13.0 °C 82% 30.15 in / 1021 hPa 6.2 miles / 10.0 kilometers NE 8.1 mph / 13.0 km/h - N/A   Partly Cloudy
5:30 PM 60.8 °F / 16.0 °C 55.4 °F / 13.0 °C 82% 30.15 in / 1021 hPa 6.2 miles / 10.0 kilometers NNE 10.4 mph / 16.7 km/h - N/A   Partly Cloudy
6:00 PM 59.0 °F / 15.0 °C 55.4 °F / 13.0 °C 88% 30.15 in / 1021 hPa 6.2 miles / 10.0 kilometers NNE 9.2 mph / 14.8 km/h - N/A   Partly Cloudy
6:30 PM 59.0 °F / 15.0 °C 55.4 °F / 13.0 °C 88% 30.15 in / 1021 hPa 6.2 miles / 10.0 kilometers NNE 10.4 mph / 16.7 km/h - N/A   Partly Cloudy
7:00 PM 57 °F / 14 °C 54 °F / 12 °C 84% 30.18 in / 1022 hPa 6 miles / 10 kilometers NNE 9.2 mph / 14.8 km/h - -   Scattered Clouds
7:00 PM 57.2 °F / 14.0 °C 53.6 °F / 12.0 °C 88% 30.15 in / 1021 hPa 6.2 miles / 10.0 kilometers NNE 9.2 mph / 14.8 km/h - N/A   Partly Cloudy
7:30 PM 57.2 °F / 14.0 °C 53.6 °F / 12.0 °C 88% 30.18 in / 1022 hPa 6.2 miles / 10.0 kilometers NNE 8.1 mph / 13.0 km/h - N/A   Partly Cloudy
8:00 PM 55.4 °F / 13.0 °C 51.8 °F / 11.0 °C 88% 30.18 in / 1022 hPa 6.2 miles / 10.0 kilometers NE 6.9 mph / 11.1 km/h - N/A   Partly Cloudy
8:30 PM 55.4 °F / 13.0 °C 51.8 °F / 11.0 °C 88% 30.18 in / 1022 hPa 6.2 miles / 10.0 kilometers NNE 6.9 mph / 11.1 km/h - N/A   Partly Cloudy
9:00 PM 55.4 °F / 13.0 °C 51.8 °F / 11.0 °C 88% 30.21 in / 1023 hPa 6.2 miles / 10.0 kilometers NE 3.5 mph / 5.6 km/h - N/A   Partly Cloudy
10:00 PM 54 °F / 12 °C 52 °F / 11 °C 90% 30.22 in / 1023 hPa 6 miles / 10 kilometers ENE 2.3 mph / 3.7 km/h - -   Scattered Clouds
10:00 PM 53.6 °F / 12.0 °C 51.8 °F / 11.0 °C 94% 30.21 in / 1023 hPa 6.2 miles / 10.0 kilometers ENE 2.3 mph / 3.7 km/h - N/A   Partly Cloudy
10:30 PM 53.6 °F / 12.0 °C 51.8 °F / 11.0 °C 94% 30.21 in / 1023 hPa 6.2 miles / 10.0 kilometers Calm Calm - N/A   Partly Cloudy
11:00 PM 53.6 °F / 12.0 °C 51.8 °F / 11.0 °C 94% 30.21 in / 1023 hPa 5.0 miles / 8.0 kilometers WSW 2.3 mph / 3.7 km/h - N/A   Partly Cloudy
11:30 PM 53.6 °F / 12.0 °C 51.8 °F / 11.0 °C 94% 30.21 in / 1023 hPa 5.0 miles / 8.0 kilometers WSW 2.3 mph / 3.7 km/h - N/A   Partly Cloudy